TimeEDT,TemperatureF,Dew PointF,Humidity,Sea Level PressureIn,VisibilityMPH,Wind Direction,Wind SpeedMPH,Gust SpeedMPH,PrecipitationIn,Events,Conditions,WindDirDegrees,DateUTC
12:10 AM,68.0,64.4,88,29.96,10.0,East,13.8,-,N/A,Thunderstorm,Thunderstorm,80,2013-06-26 04:10:00
12:37 AM,68.0,64.4,88,29.94,10.0,East,8.1,-,N/A,Thunderstorm,Overcast,100,2013-06-26 04:37:00
12:56 AM,68.0,64.0,87,29.91,10.0,ENE,9.2,-,N/A,,Overcast,70,2013-06-26 04:56:00
1:35 AM,66.2,64.4,94,29.94,9.0,NE,9.2,-,0.00,Rain-Thunderstorm,Light Rain,50,2013-06-26 05:35:00
1:56 AM,66.9,64.9,93,29.88,8.0,SE,5.8,-,0.03,,Overcast,140,2013-06-26 05:56:00
2:05 AM,66.2,64.4,94,29.93,9.0,Calm,Calm,-,N/A,Thunderstorm,Overcast,0,2013-06-26 06:05:00
2:43 AM,66.2,64.4,94,29.95,8.0,South,3.5,-,0.03,Rain,Light Rain,180,2013-06-26 06:43:00
2:56 AM,66.9,64.9,93,29.91,7.0,SSE,4.6,-,0.04,Rain,Light Rain,150,2013-06-26 06:56:00
3:33 AM,66.2,66.2,100,29.94,4.0,SSE,3.5,-,0.06,Rain-Thunderstorm,Rain,160,2013-06-26 07:33:00
3:54 AM,66.2,64.4,94,29.93,4.0,Calm,Calm,-,0.11,Rain,Rain,0,2013-06-26 07:54:00
3:56 AM,66.9,64.9,93,29.90,4.0,Calm,Calm,-,0.11,Rain,Rain,0,2013-06-26 07:56:00
4:56 AM,66.9,64.9,93,29.89,10.0,Calm,Calm,-,0.03,,Partly Cloudy,0,2013-06-26 08:56:00
5:56 AM,66.9,64.9,93,29.88,10.0,SE,4.6,-,N/A,,Clear,130,2013-06-26 09:56:00
6:56 AM,66.9,64.9,93,29.91,10.0,SW,10.4,-,0.00,Rain,Light Rain,220,2013-06-26 10:56:00
7:06 AM,66.2,64.4,94,29.94,10.0,WSW,12.7,-,0.00,,Overcast,240,2013-06-26 11:06:00
7:14 AM,66.2,64.4,94,29.94,5.0,WSW,11.5,-,0.01,Rain,Light Rain,250,2013-06-26 11:14:00
7:18 AM,66.2,64.4,94,29.94,4.0,WSW,13.8,-,0.02,Rain,Light Rain,240,2013-06-26 11:18:00
7:32 AM,66.2,64.4,94,29.93,4.0,WSW,6.9,-,0.03,Rain,Light Rain,240,2013-06-26 11:32:00
7:56 AM,66.9,64.9,93,29.91,5.0,SW,3.5,-,0.05,Rain,Light Rain,220,2013-06-26 11:56:00
8:56 AM,69.1,66.0,90,29.91,10.0,SW,6.9,-,0.01,,Mostly Cloudy,220,2013-06-26 12:56:00
9:56 AM,71.1,64.9,81,29.90,10.0,SW,5.8,-,N/A,,Scattered Clouds,220,2013-06-26 13:56:00
10:56 AM,75.0,66.9,76,29.89,10.0,West,8.1,-,N/A,,Partly Cloudy,260,2013-06-26 14:56:00
11:35 AM,75.2,66.2,73,29.92,10.0,West,8.1,-,N/A,,Mostly Cloudy,260,2013-06-26 15:35:00
11:56 AM,78.1,68.0,71,29.90,10.0,West,6.9,-,N/A,,Mostly Cloudy,270,2013-06-26 15:56:00
12:49 PM,78.8,68.0,69,29.93,10.0,West,9.2,-,N/A,,Mostly Cloudy,260,2013-06-26 16:49:00
12:56 PM,78.1,68.0,71,29.91,10.0,West,6.9,-,N/A,,Overcast,270,2013-06-26 16:56:00
1:56 PM,75.9,69.1,79,29.89,7.0,SW,6.9,-,0.02,Rain,Light Rain,230,2013-06-26 17:56:00
2:56 PM,79.0,66.9,66,29.88,10.0,West,9.2,-,0.00,,Mostly Cloudy,260,2013-06-26 18:56:00
3:56 PM,81.0,69.1,67,29.86,10.0,Calm,Calm,-,0.00,,Clear,0,2013-06-26 19:56:00
4:56 PM,81.0,66.9,62,29.84,10.0,SW,4.6,-,N/A,,Clear,230,2013-06-26 20:56:00
5:56 PM,82.0,68.0,62,29.82,10.0,SSE,3.5,-,N/A,,Mostly Cloudy,150,2013-06-26 21:56:00
6:56 PM,81.0,70.0,69,29.80,10.0,SSE,6.9,-,N/A,,Scattered Clouds,150,2013-06-26 22:56:00
7:56 PM,78.1,69.1,74,29.81,10.0,South,5.8,-,N/A,,Scattered Clouds,180,2013-06-26 23:56:00
8:56 PM,77.0,68.0,74,29.81,10.0,South,5.8,-,N/A,,Mostly Cloudy,170,2013-06-27 00:56:00
9:27 PM,75.2,68.0,78,29.83,10.0,South,6.9,-,N/A,Thunderstorm,Mostly Cloudy,170,2013-06-27 01:27:00
9:51 PM,71.6,66.2,83,29.85,2.5,South,10.4,-,0.09,Rain,Heavy Rain,190,2013-06-27 01:51:00
9:56 PM,70.0,68.0,93,29.83,1.8,South,8.1,-,0.14,Rain,Heavy Rain,190,2013-06-27 01:56:00
10:18 PM,69.8,68.0,94,29.85,3.0,SSW,5.8,-,0.25,Rain,Rain,210,2013-06-27 02:18:00
10:22 PM,69.8,68.0,94,29.85,1.5,Calm,Calm,-,0.32,Rain,Heavy Rain,0,2013-06-27 02:22:00
10:33 PM,69.8,68.0,94,29.85,3.0,Calm,Calm,-,0.36,Rain,Rain,0,2013-06-27 02:33:00
10:56 PM,70.0,66.9,90,29.82,5.0,South,4.6,-,0.39,Rain,Light Rain,170,2013-06-27 02:56:00
11:56 PM,68.0,66.0,93,29.81,10.0,Calm,Calm,-,0.05,,Overcast,0,2013-06-27 03:56:00